30.06.2024;16:00;90
30.06.2024;15:00;95
30.06.2024;14:00;101
30.06.2024;13:00;100
30.06.2024;12:00;104
30.06.2024;11:00;102
30.06.2024;10:00;93
30.06.2024;09:00;89
30.06.2024;08:00;92
30.06.2024;07:00;93
30.06.2024;06:00;94
30.06.2024;05:00;68
30.06.2024;04:00;64
30.06.2024;03:00;74
30.06.2024;02:00;61
30.06.2024;01:00;57
30.06.2024;00:00;59
29.06.2024;23:00;81
29.06.2024;22:00;75
29.06.2024;21:00;76
29.06.2024;20:00;86
29.06.2024;19:00;104
29.06.2024;18:00;110
29.06.2024;17:00;111
29.06.2024;16:00;110
29.06.2024;15:00;109
29.06.2024;14:00;107
29.06.2024;13:00;104
29.06.2024;12:00;96
29.06.2024;11:00;81
29.06.2024;10:00;31
29.06.2024;09:00;20
29.06.2024;08:00;14
29.06.2024;07:00;11
29.06.2024;06:00;4
29.06.2024;05:00;9
29.06.2024;04:00;8
29.06.2024;03:00;7
29.06.2024;02:00;26
29.06.2024;01:00;30
29.06.2024;00:00;24
28.06.2024;23:00;32
28.06.2024;22:00;66
28.06.2024;21:00;85
28.06.2024;20:00;94
28.06.2024;19:00;97
28.06.2024;18:00;94
28.06.2024;17:00;88
